User: anonymous   Login
Location: Theydon Bois
(51.6750°N, 0.1050°E)
Time: 22:49:58
(UTC+01:00)
Language:

Lacrosse 4 Rocket - Orbit

View from above orbital plane
View from above orbital plane
View from above satellite
View from above satellite

Ground track
Ground track

The orbit data is extracted from the following two-line orbital elements,

1 26474U 00047B   17293.32395356  .00000184  00000-0  27032-4 0  9993
2 26474  67.9941 228.0530 0057120 190.8079 169.1841 14.95574611934098
Epoch (UTC): 20 October 2017 07:46:29
Eccentricity: 0.0057120
inclination: 67.9941°
perigee height: 541 km
apogee height: 620 km
right ascension of ascending node: 228.0530°
argument of perigee: 190.8079°
revolutions per day: 14.95574611
mean anomaly at epoch: 169.1841°
orbit number at epoch: 93409

The dashed part of the orbit path shows where the satellite is in the earth's shadow,  

DLR